Regional Weather Roundup
Issued by NWS

Home | Current Version | Previous Version | Graphics & Text | Print | Product List | Glossary On
Versions: 1 2 3 4 5 6 7 8 9 10 11 12 13 14 15 16 17 18 19 20 21 22 23 24 25 26 27 28 29 30 31 32 33 34 35 36 37 38 39 40 41 42 43 44 45 46 47 48 49 50
000
ASUS45 KPSR 310110
RWRAZ

ARIZONA HOURLY REGIONAL WEATHER ROUNDUP
NATIONAL WEATHER SERVICE PHOENIX AZ
600 PM MST SUN AUG 30 2015

NOTE: FAIR INDICATES FEW OR NO CLOUDS BELOW 12,000 FEET WITH NO
SIGNIFICANT WEATHER AND/OR OBSTRUCTIONS TO VISIBILITY.

AZZ001>003-036-310200-
NORTHWEST ARIZONA

CITY           SKY/WX    TMP DP  RH WIND       PRES   REMARKS
BULLHEAD CITY  SUNNY    108  41  10 S12       29.65S HX 102
KINGMAN        SUNNY     94  44  17 SW15G26   29.90F
$$

AZZ004>008-015-016-018-310200-
NORTH CENTRAL ARIZONA

CITY           SKY/WX    TMP DP  RH WIND       PRES   REMARKS
WILLIAMS       PTSUNNY   68  61  77 SW7       30.24R
PRESCOTT       PTSUNNY   79  60  52 W7        30.05F
FLAGSTAFF      PTSUNNY   69  54  58 NE8       30.24R
PAYSON         MOSUNNY   86  48  26 SW10      30.08F
PAGE           CLOUDY    77  58  51 W5        30.03R
$$

AZZ009>014-017-310200-
NORTHEAST ARIZONA

CITY           SKY/WX    TMP DP  RH WIND       PRES   REMARKS
WINSLOW        CLOUDY    71  59  65 CALM      30.10S
SAINT JOHNS    CLOUDY    74  53  48 W14       30.14S
WINDOW ROCK    CLOUDY    71  49  45 N8G17     30.26R
SHOW LOW       CLOUDY    66  54  63 E7        30.23R
$$

AZZ023-310200-
GREATER PHOENIX AREA

CITY           SKY/WX    TMP DP  RH WIND       PRES   REMARKS
PHOENIX        PTSUNNY  105  57  20 VRB5      29.70F HX 104
BUCKEYE        MOSUNNY  104  59  22 SW5       29.70S HX 104
GLENDALE       MOSUNNY  108  55  18 S9        29.72F HX 106
LUKE AFB       SUNNY    105  57  20 SW10      29.69F HX 105
DEER VALLEY    SUNNY    102  57  22 VRB6      29.73F HX 101
SCOTTSDALE     MOSUNNY  103  56  21 S6        29.75F HX 102
MESA-FALCON    MOSUNNY  104  55  20 SW9       29.74F HX 103
MESA-GATEWAY   MOSUNNY  102  57  22 SW6       29.76F HX 101
CHANDLER       MOSUNNY  104  59  22 SE6       29.73F HX 104
$$

AZZ027-028-310200-
SOUTHWEST MARICOPA COUNTY AND PINAL COUNTY

CITY           SKY/WX    TMP DP  RH WIND       PRES   REMARKS
CASA GRANDE    MOSUNNY  100  59  25 S7        29.75S HX 100
GILA BEND      FAIR     106  55  18 SW13      29.68S HX 105
$$

AZZ503-504-507>509-310200-
SOUTHEAST ARIZONA

CITY           SKY/WX    TMP DP  RH WIND       PRES   REMARKS
TUCSON         CLOUDY    89  58  34 S14       29.93R
DAVIS-MONTHAN  CLOUDY    88  60  38 SE12      29.92R
RYAN FIELD     CLEAR     91  61  35 SW7       29.90R
NOGALES        CLOUDY    70  66  87 CALM      30.06R
SIERRA VISTA   CLOUDY    78  56  46 SE8       30.11R
DOUGLAS        LGT RAIN  69  64  84 E5        30.06F
SAFFORD        MOCLDY    93  54  26 SW10      29.91S
$$

AZZ020-021-025-026-031-310200-
SOUTHWEST ARIZONA

CITY           SKY/WX    TMP DP  RH WIND       PRES   REMARKS
YUMA           MOSUNNY  108  49  14 W8        29.65S HX 104
$$

CAZ031-033-041-043-047-048-061-310200-
SOUTHERN CALIFORNIA

CITY           SKY/WX    TMP DP  RH WIND       PRES   REMARKS
DOWNTOWN L.A.  SUNNY     80  62  54 VRB5      29.82F
L.A. AIRPORT   MOSUNNY   75  63  66 W10       29.84S
SAN DIEGO      PTSUNNY   75  64  68 W7        29.87S
BURBANK        SUNNY     85  61  44 S10       29.83S
ONTARIO        MOSUNNY   87  59  38 W13       29.82F
RIVERSIDE      SUNNY     88  60  38 W14G22    29.81F
PALM SPRINGS   PTSUNNY  104  49  15 NW21      29.68F HX 101
EL CENTRO NAS  SUNNY    103  43  13 SW25      29.66F
IMPERIAL       SUNNY    103  47  15 W24G30    29.63F
BLYTHE         SUNNY    108  44  11 SW12      29.65F HX 103
NEEDLES        FAIR     107  39  10 W10       29.67F HX 101
$$

NVZ020-UTZ003-310200-
SOUTHERN NEVADA-UTAH

CITY           SKY/WX    TMP DP  RH WIND       PRES   REMARKS
LAS VEGAS      MOSUNNY   99  36  11 SW15G23   29.73F
SALT LAKE CITY PTSUNNY   83  43  24 N14       29.91S
$$

NMZ009-TXZ055-310200-
NEW MEXICO-WEST TEXAS

CITY           SKY/WX    TMP DP  RH WIND       PRES   REMARKS
ALBUQUERQUE    PTCLDY    89  41  18 SW7       30.06F
EL PASO        FAIR      89  46  22 SE7       30.00S
$$


........................KEY........................
SKY/WX - SKY CONDITION/WEATHER
TMP    - TEMPERATURE IN FAHRENHEIT
DP     - DEW POINT IN FAHRENHEIT
RH     - RELATIVE HUMIDITY IN PERCENT
WIND   - DIRECTION AND SPEED IN MILES PER HOUR (MPH)
VRB    - VARIABLE WIND DIRECTION
PRES   - MEAN SEA LEVEL PRESSURE IN INCHES OF MERCURY
         F - FALLING PRESSURE   R - RISING PRESSURE
         S - STEADY PRESSURE
VSB    - VISIBILITY IN MILES
HX     - HEAT INDEX IN FAHRENHEIT
WCI    - WIND CHILL INDEX IN FAHRENHEIT
TC     - TEMPERATURE IN CELSIUS WHICH IS ALSO KNOWN AS
         TEMPERATURE IN CENTIGRADE
AFB    - AIR FORCE BASE
         LUKE AFB IS LUKE AIR FORCE BASE
         DAVIS-MONTHAN IS DAVIS-MONTHAN AIR FORCE BASE
NAS    - NAVAL AIR STATION
         EL CENTRO NAS IS EL CENTRO NAVAL AIR STATION
N/A    - NOT AVAILABLE



USA.gov is the U.S. government's official web portal to all federal, state and local government web resources and services.